[[{"header":{"parameterUnit":"m.s-1","parameterCategory":1,"la1":30.2992,"la2":30.254,"lo1":-89.0895,"lo2":-89.0443,"dy":0.0025,"dx":0.0025,"nx":19,"ny":19,"refTime":"2026-04-21T21:00:00:Z","depth":0,"parameterNumber":2,"parameterNumberName":"U-component_of_WINDS"},"data":[0,0,0,-2.66,-2.6601,-2.6609,-2.6609,-2.664,-2.664,0,0,0,0,0,0,0,0,0,0,0,-2.661,-2.661,-2.66,-2.6601,-2.6609,-2.6608,-2.664,-2.664,0,0,0,0,0,0,0,0,0,0,0,-2.6609,-2.661,-2.6611,-2.6601,-2.6609,-2.6608,-2.664,-2.6626,0,0,0,0,0,0,0,0,0,0,-2.6615,-2.6635,-2.661,-2.6611,-2.6601,-2.6609,-2.6608,-2.6625,-2.6627,-2.6645,0,-2.6664,0,-2.6653,-2.6644,-2.6644,0,0,0,-2.6592,-2.6634,-2.6625,-2.6611,-2.6601,-2.6609,-2.6602,-2.6626,-2.6628,-2.6648,-2.6664,-2.6664,-2.6653,-2.6644,-2.6644,-2.6776,-2.6777,0,0,-2.6591,-2.6618,-2.6624,-2.6627,-2.6626,-2.6602,-2.6603,-2.6627,-2.6647,-2.6664,-2.6665,-2.6654,-2.6644,-2.6645,-2.6775,-2.6777,0,0,0,-2.6596,-2.6618,-2.6608,-2.6626,-2.6626,-2.6603,-2.6603,-2.6645,-2.664,-2.6665,-2.6654,-2.6645,-2.6645,-2.6774,-2.6776,-2.6852,0,0,0,-2.6595,-2.662,-2.6608,-2.6625,-2.6626,-2.6636,-2.6622,-2.6638,-2.664,-2.6654,-2.6645,-2.6646,-2.6773,-2.6775,-2.6848,-2.6884,0,0,0,-2.6605,-2.6621,-2.6627,-2.6626,-2.663,-2.6635,-2.663,-2.6638,-2.6634,-2.6644,-2.6646,-2.6772,-2.6775,-2.6844,-2.6877,-2.6927,0,0,0,-2.6623,-2.6694,-2.6628,-2.6704,-2.663,-2.6682,-2.663,-2.6667,-2.6685,-2.6645,-2.6773,-2.6776,-2.6842,-2.6873,-2.6922,-2.6973,-2.6996,0,0,-2.6727,-2.6708,-2.675,-2.6691,-2.6761,-2.6679,-2.676,-2.6751,-2.6728,-2.6762,-2.6765,-2.6849,-2.6877,-2.6926,-2.7119,-2.7138,0,0,0,-2.6792,-2.6823,-2.6836,-2.6854,-2.6849,-2.6848,-2.6824,-2.6821,-2.6848,-2.6751,-2.688,-2.6895,-2.6923,-2.6946,-2.6962,-2.6984,-2.6787,-2.6787,-2.6787,-2.6977,-2.6944,-2.7012,-2.6981,-2.6999,-2.6974,-2.6986,-2.6978,-2.6939,-2.6971,-2.698,-2.7101,-2.7129,-2.7141,-2.7165,-2.7004,-2.7004,-2.7005,-2.7005,-2.7127,-2.7165,-2.7113,-2.716,-2.7125,-2.7165,-2.7145,-2.7116,-2.7148,-2.7091,-2.7114,-2.7054,-2.7163,-2.7182,-2.701,-2.7009,-2.7009,-2.7008,-2.7008,-2.7244,-2.7256,-2.7252,-2.7275,-2.7297,-2.7263,-2.7297,-2.7264,-2.7234,-2.7256,-2.7263,-2.7262,-2.7256,-2.7262,-2.7263,-2.7263,-2.7263,-2.7264,-2.7264,-2.7367,-2.7359,-2.7391,-2.7393,-2.7401,-2.7408,-2.7385,-2.7392,-2.7391,-2.7365,-2.7365,-2.7324,-2.7179,-2.7144,-2.727,-2.7269,-2.7268,-2.7268,-2.7267,-2.753,-2.7488,-2.7538,-2.7546,-2.7546,-2.7571,-2.7529,-2.7547,-2.7548,-2.7566,-2.7521,-2.7419,-2.7397,-2.7384,-2.7354,-2.7527,-2.7527,-2.7527,-2.7527,-2.7629,-2.7614,-2.7658,-2.7674,-2.7685,-2.7653,-2.7711,-2.7695,-2.7671,-2.7671,-2.7641,-2.7599,-2.7587,-2.7571,-2.7554,-2.7526,-2.7739,-2.7739,-2.7739,-2.7728,-2.7713,-2.7769,-2.7745,-2.7743,-2.7743,-2.7797,-2.7818,-2.7782,-2.7747,-2.7669,-2.766,-2.7592,-2.7572,-2.7534,-2.7508,-2.7456,0,0]},{"header":{"parameterUnit":"m.s-1","parameterCategory":1,"la1":30.2992,"la2":30.254,"lo1":-89.0895,"lo2":-89.0443,"dy":0.0025,"dx":0.0025,"nx":19,"ny":19,"refTime":"2026-04-21T21:00:00:Z","depth":0,"parameterNumber":3,"parameterNumberName":"V-component_of_WINDS"},"data":[0,0,0,2.3608,2.3608,2.3608,2.3608,2.3614,2.3614,0,0,0,0,0,0,0,0,0,0,0,2.3611,2.3611,2.3608,2.3608,2.3608,2.3608,2.3614,2.3614,0,0,0,0,0,0,0,0,0,0,0,2.361,2.3611,2.3611,2.3608,2.3608,2.3608,2.3614,2.3612,0,0,0,0,0,0,0,0,0,0,2.361,2.3615,2.3611,2.3611,2.3608,2.3608,2.3608,2.3611,2.3612,2.3615,0,2.3619,0,2.3617,2.3614,2.3614,0,0,0,2.3606,2.3615,2.3613,2.3611,2.3608,2.3608,2.3608,2.3612,2.3612,2.3616,2.3619,2.3619,2.3617,2.3614,2.3614,2.3643,2.3643,0,0,2.3606,2.3612,2.3613,2.3613,2.3613,2.3608,2.3608,2.3612,2.3616,2.3619,2.3619,2.3617,2.3614,2.3615,2.3643,2.3643,0,0,0,2.3607,2.3612,2.361,2.3613,2.3613,2.3608,2.3608,2.3616,2.3614,2.362,2.3617,2.3615,2.3615,2.3642,2.3643,2.366,0,0,0,2.3607,2.3613,2.361,2.3613,2.3613,2.3614,2.3612,2.3614,2.3614,2.3617,2.3615,2.3615,2.3642,2.3642,2.3659,2.3666,0,0,0,2.361,2.3613,2.3614,2.3614,2.3614,2.3614,2.3613,2.3614,2.3613,2.3614,2.3615,2.3642,2.3642,2.3658,2.3665,2.3675,0,0,0,2.3614,2.3629,2.3615,2.3631,2.3614,2.3625,2.3613,2.362,2.3624,2.3615,2.3642,2.3643,2.3657,2.3664,2.3675,2.3685,2.369,0,0,2.3637,2.3632,2.3641,2.3628,2.3643,2.3624,2.3642,2.3639,2.3633,2.364,2.3641,2.3659,2.3665,2.3675,2.3718,2.3722,0,0,0,2.365,2.3657,2.366,2.3663,2.3662,2.3661,2.3655,2.3654,2.3659,2.3638,2.3666,2.3669,2.3675,2.368,2.3683,2.3688,2.3645,2.3645,2.3645,2.3691,2.3683,2.3698,2.3691,2.3694,2.3688,2.3691,2.3688,2.368,2.3686,2.3688,2.3715,2.372,2.3723,2.3728,2.3693,2.3694,2.3694,2.3694,2.3723,2.3731,2.3719,2.3729,2.3721,2.373,2.3725,2.3719,2.3725,2.3713,2.3717,2.3704,2.3728,2.3731,2.3695,2.3695,2.3694,2.3694,2.3694,2.3748,2.375,2.3749,2.3754,2.3758,2.3751,2.3758,2.3751,2.3744,2.3749,2.375,2.3749,2.3748,2.375,2.375,2.375,2.375,2.375,2.375,2.3773,2.3772,2.3778,2.3779,2.378,2.3782,2.3777,2.3778,2.3778,2.3772,2.3772,2.3762,2.3732,2.3724,2.3752,2.3751,2.3751,2.3751,2.3751,2.3807,2.3799,2.3809,2.3811,2.3811,2.3816,2.3807,2.3811,2.3811,2.3815,2.3805,2.3783,2.3778,2.3775,2.3769,2.3806,2.3806,2.3806,2.3806,2.3828,2.3825,2.3834,2.3837,2.384,2.3833,2.3845,2.3842,2.3837,2.3837,2.383,2.3821,2.3819,2.3815,2.3811,2.3805,2.3851,2.3851,2.3851,2.3848,2.3845,2.3857,2.3852,2.3852,2.3852,2.3863,2.3867,2.386,2.3853,2.3836,2.3834,2.3819,2.3815,2.3806,2.3801,2.3789,0,0]}]]